GEFSSE_500_meanwind_276.txt.gz
Wind_Speed
11 11 11 10 11 10 10 10 10 9 9 10 10 10 10 10 10 10 10 10 10 10 10 9 9 9 9 8 8 8 7 7 8 8 7 7 6 6 6 7 7 6 6
12 12 12 11 11 11 11 11 11 11 11 11 11 11 11 11 11 11 11 11 10 10 10 10 10 10 10 9 9 9 9 8 8 8 8 8 8 8 8 8 7 7 7
13 13 13 12 12 12 12 13 12 12 13 13 12 12 12 12 12 12 12 12 12 12 11 11 11 11 11 10 10 10 9 9 9 9 9 10 9 9 9 9 9 8 8
13 14 13 13 13 13 13 13 13 14 14 14 14 13 13 13 13 13 13 13 13 13 12 12 12 12 12 11 11 11 11 10 10 10 11 11 11 11 10 10 10 10 10
14 14 14 14 14 14 14 14 14 14 14 14 15 15 15 15 14 14 14 14 14 14 13 13 13 13 13 13 12 12 12 12 12 12 12 12 12 12 11 11 11 11 11
15 15 15 16 16 15 15 15 14 14 15 15 15 15 15 16 16 15 15 14 14 14 14 14 15 15 15 15 14 14 13 13 13 13 13 12 13 13 13 12 12 12 13
17 17 17 17 17 17 17 16 16 16 16 16 16 16 16 17 17 17 17 16 16 16 16 16 16 17 17 16 16 16 15 15 16 15 15 14 14 14 14 14 14 14 14
18 18 18 18 18 18 18 18 17 17 16 17 17 18 18 18 18 18 18 18 18 18 18 18 18 18 18 18 18 18 18 18 18 17 17 16 16 15 15 15 15 15 15
20 20 20 20 20 20 20 20 20 19 19 19 19 19 19 19 19 19 19 19 20 20 20 20 20 20 20 20 20 20 20 20 20 19 19 19 18 18 18 18 17 18 18
21 21 21 21 22 22 22 22 22 22 22 21 21 21 20 20 20 20 20 19 20 20 20 21 21 21 22 22 21 21 22 22 22 22 21 21 21 21 20 20 20 20 20
23 23 23 23 23 23 23 23 24 24 24 23 23 22 21 21 21 21 21 21 21 22 22 22 22 22 23 23 23 23 24 24 23 23 23 23 23 23 23 22 23 22 22
25 25 25 25 25 24 25 25 25 25 25 25 25 24 23 23 23 23 23 23 23 24 24 24 25 25 24 24 25 25 25 26 26 26 26 26 26 25 25 25 25 25 24
26 27 27 27 27 27 27 27 27 27 27 27 26 26 26 25 25 25 26 26 26 25 26 26 27 27 26 26 27 27 28 27 28 28 28 28 28 28 28 27 27 27 26
28 28 28 28 29 29 29 29 29 28 28 28 28 28 28 28 28 28 28 28 28 28 28 28 28 29 29 29 29 30 30 30 30 31 31 31 31 31 31 31 30 30 29
29 29 29 30 30 31 31 30 30 31 30 30 30 30 30 30 31 31 31 31 31 31 31 31 31 31 32 32 32 32 32 33 33 33 34 34 34 34 34 34 34 33 33
30 30 31 31 31 31 32 32 32 32 32 32 32 32 32 33 33 34 33 34 34 34 34 34 33 33 34 34 34 35 35 36 36 36 36 36 36 36 36 36 36 36 36
32 31 32 32 33 33 33 33 33 34 34 35 35 36 35 35 35 36 35 36 36 37 36 36 36 36 36 37 37 37 38 38 39 39 39 39 39 39 39 39 39 39 38
34 33 33 34 34 35 35 35 35 36 37 37 38 38 38 39 39 39 38 38 38 38 39 39 39 39 39 40 41 41 41 41 41 41 41 42 42 41 41 41 41 42 41
35 36 36 36 36 37 37 37 38 38 39 39 40 40 40 41 42 41 42 42 41 41 41 41 42 43 43 43 43 44 44 44 43 43 44 44 44 43 44 44 44 44 45
37 37 38 38 38 39 40 40 40 41 41 42 43 43 43 43 44 44 44 44 44 44 45 45 45 45 45 45 46 46 46 46 45 46 46 47 47 47 47 47 46 46 46
38 39 40 40 41 41 42 42 43 43 44 44 45 45 46 46 46 46 46 47 47 48 48 47 48 48 48 48 48 48 47 47 48 48 48 49 49 50 50 50 49 49 48
40 40 41 42 43 43 44 44 45 46 46 46 47 47 47 48 48 48 49 49 49 49 49 49 50 50 50 50 50 50 49 48 49 49 49 50 50 51 51 51 50 50 50
41 42 43 43 44 44 45 46 46 47 48 48 48 48 49 49 50 50 50 50 51 51 50 50 51 51 51 50 51 52 51 51 50 50 52 52 51 52 52 51 51 51 52
43 44 44 44 44 44 45 45 47 47 48 48 49 49 50 51 52 52 52 52 52 52 52 52 52 52 52 51 52 52 53 53 53 53 52 52 52 52 53 53 52 51 52
43 43 43 44 44 44 45 45 46 47 47 48 49 49 50 51 51 52 52 53 52 52 52 52 53 53 53 53 53 53 54 55 55 54 53 52 51 51 52 52 52 51 52
42 43 43 44 45 45 45 46 46 47 48 48 49 50 50 50 51 51 51 52 51 52 52 53 53 54 54 54 55 55 55 55 55 55 54 53 53 52 52 52 52 51 52

GEFSSE_500_meanwind_282.txt.gz
Wind_Speed
11 11 10 10 11 11 10 10 10 10 10 11 11 11 11 11 11 11 11 11 12 12 12 12 12 11 11 10 10 10 9 9 9 8 8 7 7 6 6 6 5 5 5
12 12 12 12 12 11 11 11 11 11 11 11 12 12 12 12 12 12 12 12 12 12 11 11 12 12 11 10 10 11 11 10 10 10 9 9 8 8 7 7 7 6 6
13 13 13 13 12 12 12 12 12 12 12 12 13 13 13 13 13 13 13 13 13 13 12 12 12 12 12 12 11 11 11 11 12 12 11 10 10 9 9 9 9 8 7
14 14 13 13 13 12 13 13 13 13 13 13 13 13 13 14 14 14 13 13 14 13 13 13 13 13 13 13 13 12 12 12 13 13 13 12 12 11 11 11 10 10 9
15 15 14 14 13 14 14 14 14 14 14 14 14 14 14 14 14 14 15 14 14 14 14 14 14 14 14 15 14 13 13 13 14 14 14 13 13 13 13 13 12 12 11
16 16 16 15 15 15 16 15 15 15 14 14 14 15 15 15 15 16 16 16 16 16 15 15 16 16 16 16 15 15 14 14 15 15 15 14 14 14 14 14 14 14 13
17 17 17 17 17 17 17 17 16 16 16 16 16 15 16 16 16 17 17 17 17 17 17 17 17 17 17 17 17 16 16 16 16 17 16 16 16 16 16 16 16 15 15
18 18 18 18 18 18 18 18 18 18 18 18 18 17 17 17 17 17 17 18 18 18 18 18 18 18 19 18 18 18 17 18 17 18 18 18 18 18 17 17 17 17 17
20 20 20 20 20 20 19 19 19 20 20 20 20 20 19 19 19 19 19 19 19 19 20 20 19 19 20 20 19 19 19 19 19 20 20 19 20 19 19 19 18 18 18
22 22 22 21 21 21 21 21 21 21 21 21 21 21 21 21 21 21 20 21 21 21 21 21 21 21 21 21 21 21 21 21 21 22 22 21 21 21 21 21 20 20 20
23 23 23 23 23 23 22 22 22 22 22 22 23 23 23 23 22 22 22 22 22 22 22 22 22 23 22 23 23 23 23 23 23 23 23 23 23 23 23 23 22 22 22
25 25 24 25 25 24 24 24 23 23 23 23 24 25 25 24 24 24 24 23 23 23 23 23 24 24 24 24 25 25 25 25 25 25 25 25 26 26 25 25 24 24 24
27 27 26 26 26 26 26 26 25 25 24 24 25 25 25 26 26 25 25 25 25 25 25 25 25 26 26 26 26 27 27 27 27 27 27 27 28 28 28 28 27 27 26
28 29 29 28 28 28 28 27 27 27 26 26 27 27 27 27 27 27 28 28 28 28 27 27 28 28 29 29 29 29 29 29 29 29 29 29 29 30 30 30 30 29 29
30 30 30 30 30 30 30 29 29 28 28 29 29 29 29 29 29 29 30 30 30 30 30 30 30 31 31 31 31 31 31 32 32 32 31 31 31 32 32 32 32 32 32
32 32 32 32 32 32 32 31 31 31 31 31 31 31 31 31 31 31 31 32 32 32 32 32 32 33 33 33 33 34 33 33 34 34 34 33 34 34 34 34 34 34 34
33 33 33 34 34 34 34 34 33 33 33 33 33 33 34 34 33 33 33 34 35 35 35 35 35 35 36 36 36 36 36 36 36 36 36 37 37 37 37 37 37 37 37
35 34 35 35 35 35 35 35 36 36 36 36 35 35 35 36 36 36 35 36 37 37 37 37 38 38 38 38 39 39 39 38 38 39 39 39 40 40 40 40 40 40 40
36 36 36 36 36 37 37 37 37 38 38 38 37 37 37 38 38 39 39 39 39 39 39 40 40 41 40 41 41 41 41 41 41 41 42 42 42 43 43 43 43 43 43
37 37 37 37 37 38 38 39 39 40 40 40 39 40 40 40 40 41 41 42 42 42 41 42 42 42 43 43 43 43 43 44 44 44 44 44 45 45 45 46 46 46 46
38 38 38 38 39 39 40 40 40 40 41 42 42 42 43 43 43 44 44 44 45 45 44 44 44 44 45 45 45 45 45 45 46 46 46 46 47 47 47 48 48 49 49
39 39 40 40 40 40 41 41 41 42 42 43 44 45 45 45 45 45 45 46 46 47 47 47 46 46 46 47 47 47 47 47 47 47 47 47 48 49 50 50 51 52 52
40 40 41 41 42 42 42 42 42 43 43 44 45 46 47 47 47 47 47 47 47 48 48 49 49 49 48 49 49 50 50 49 49 49 49 50 50 51 52 53 53 53 53
41 41 41 42 42 43 43 43 44 44 45 46 47 47 47 47 47 47 48 47 48 48 49 49 50 50 50 50 50 51 52 52 52 52 51 52 52 52 53 54 55 54 54
41 41 42 42 43 43 44 45 45 45 46 46 47 47 47 47 48 48 48 47 48 48 49 50 50 51 52 52 52 52 53 53 53 53 53 53 53 53 54 54 55 56 55
40 41 42 42 43 44 45 45 46 46 47 47 47 47 48 48 48 48 48 49 49 49 49 50 51 51 52 53 53 53 54 55 54 54 54 54 54 54 55 55 56 56 56

GEFSSE_500_meanwind_288.txt.gz
Wind_Speed
12 12 12 12 12 12 12 12 12 12 11 11 11 11 11 11 11 11 11 10 10 10 11 10 10 10 10 10 10 9 9 9 9 8 8 7 7 7 7 6 6 6 6
13 13 13 13 13 13 13 13 13 12 12 12 12 12 12 11 12 11 12 11 11 12 12 11 10 10 10 11 11 10 10 10 10 10 9 9 8 8 8 8 7 7 7
13 14 14 14 14 14 14 14 14 13 13 13 13 12 11 11 11 11 12 12 12 12 12 12 11 11 11 11 12 12 12 11 11 11 11 10 10 10 9 9 9 8 8
15 15 15 15 14 14 14 14 14 14 14 14 13 12 12 11 12 12 12 12 12 12 12 12 12 12 12 12 13 13 12 12 12 12 12 12 12 11 11 11 10 10 10
16 16 16 16 15 15 15 15 15 15 15 14 14 13 13 13 13 13 13 13 13 13 13 13 12 12 13 13 13 14 13 13 13 13 13 13 13 13 13 12 12 12 11
17 17 17 17 17 17 17 17 16 15 15 15 15 15 14 14 14 14 14 14 14 14 14 14 14 14 14 14 14 14 14 14 14 15 14 14 14 15 14 14 13 13 13
19 18 18 18 18 18 18 18 18 17 17 16 16 16 16 15 15 15 15 15 15 15 15 15 15 15 15 15 15 15 15 15 15 15 16 16 16 16 15 15 15 14 14
20 20 20 20 20 19 19 19 19 19 18 18 17 17 17 17 16 16 16 16 16 16 16 16 16 16 16 16 16 16 16 16 17 16 17 17 17 17 17 16 17 16 16
21 21 21 21 21 21 20 21 20 20 19 19 19 19 19 18 18 18 18 18 18 18 17 18 18 17 18 18 18 18 18 17 18 18 18 18 19 19 19 18 18 18 18
22 23 23 23 22 22 22 22 22 22 21 21 20 20 20 20 20 20 19 19 19 19 19 19 19 19 19 19 19 19 19 19 19 19 19 19 20 20 20 20 20 20 20
24 24 24 24 24 24 24 24 23 23 23 22 22 22 21 21 22 21 21 21 20 20 21 21 20 20 20 20 21 20 20 20 20 20 20 21 21 22 22 22 22 21 21
26 26 26 25 25 26 26 25 25 24 24 24 24 23 23 23 23 23 23 23 23 23 23 22 23 23 23 23 23 22 22 22 22 22 22 22 22 23 24 24 25 24 24
28 28 28 27 27 27 27 27 27 27 26 26 26 25 25 24 24 25 25 25 25 25 24 24 25 25 25 25 25 25 25 25 25 25 24 25 25 25 25 26 27 27 27
29 29 29 29 29 29 29 30 30 29 29 28 28 28 27 27 27 27 27 26 26 26 26 26 26 26 26 27 27 27 27 27 28 27 27 27 27 27 27 28 29 29 29
30 31 31 31 31 31 31 31 31 31 32 31 30 30 30 29 29 29 29 28 28 28 28 28 28 28 28 28 28 29 30 30 30 30 29 30 30 30 29 30 30 31 31
33 33 33 33 33 32 32 32 33 33 33 33 33 33 32 32 31 31 31 31 31 31 30 30 30 30 31 31 31 32 32 32 33 33 33 32 32 32 32 32 32 33 33
34 35 35 35 35 35 34 34 34 34 35 35 35 35 35 34 34 33 33 33 33 33 33 33 33 33 33 33 33 34 34 34 35 35 35 35 34 35 35 35 34 35 35
36 36 36 37 37 37 36 36 36 36 36 37 37 37 37 36 36 36 35 35 35 34 35 35 35 36 36 35 36 36 36 37 37 38 38 37 36 36 37 37 37 37 37
37 37 38 38 38 38 38 38 38 37 38 38 38 38 38 38 38 38 38 37 37 37 37 38 37 37 38 38 38 38 38 39 39 39 40 40 39 39 39 39 39 40 40
38 38 39 39 40 40 40 40 39 39 39 39 39 39 39 40 40 40 39 40 39 39 39 40 39 39 40 40 40 40 40 41 41 41 42 42 42 42 42 42 42 42 42
39 40 40 40 41 41 41 40 41 41 41 41 41 41 41 41 41 42 42 42 41 41 41 41 42 41 41 41 42 43 43 43 43 43 43 43 43 43 44 44 44 44 44
41 40 40 41 41 42 42 42 43 42 42 42 42 42 43 43 43 43 44 43 43 44 44 43 43 43 44 44 44 44 44 44 44 45 45 45 46 45 45 46 46 47 47
41 41 41 42 43 43 43 44 43 43 43 43 43 43 44 44 44 44 44 45 45 45 45 45 45 45 45 45 46 46 46 46 46 46 47 47 48 48 48 48 48 48 49
41 42 42 43 43 44 44 44 44 44 44 44 44 44 45 45 45 45 46 46 46 47 47 47 47 48 47 46 47 48 49 49 49 48 49 49 49 50 50 50 50 50 50
42 42 42 43 43 44 44 44 44 44 44 45 45 45 45 46 46 46 47 47 47 48 48 49 49 49 49 50 49 50 50 51 51 51 51 51 51 51 51 51 51 52 52
42 42 42 43 43 44 44 44 44 44 44 45 45 45 45 46 46 47 47 47 48 48 49 49 49 49 50 51 51 51 51 52 52 53 53 53 53 53 53 53 54 54 54

GEFSSE_500_meanwind_294.txt.gz
Wind_Speed
11 12 12 12 12 12 13 13 13 12 12 12 12 12 12 12 11 11 11 11 11 11 11 11 10 10 9 9 9 9 9 8 8 8 8 7 7 7 6 6 6 5 6
12 13 13 13 13 13 13 13 13 14 13 13 13 13 13 13 13 12 12 12 12 12 12 12 11 11 10 10 10 9 9 10 10 9 9 8 8 8 8 7 7 7 7
14 14 14 15 14 14 14 13 14 14 14 14 14 14 14 14 13 13 12 12 13 13 13 12 12 12 11 11 10 10 10 10 11 11 10 10 9 9 9 9 9 9 8
15 15 15 15 15 15 15 15 14 15 15 15 15 15 15 14 14 13 13 13 13 13 14 13 13 13 12 12 12 11 11 12 12 12 12 11 11 11 10 10 10 10 10
16 16 16 16 16 16 16 16 16 16 16 16 15 15 15 15 15 14 14 14 14 14 15 15 14 14 13 13 12 12 12 12 13 13 13 13 13 13 12 12 12 12 11
17 17 17 17 17 17 17 17 17 17 17 17 16 16 15 16 15 16 16 15 15 15 15 15 15 14 14 14 13 13 13 13 13 13 14 14 14 14 14 13 13 13 13
18 18 18 18 18 18 18 18 18 18 18 18 18 17 16 16 16 16 16 16 16 16 16 16 15 15 15 15 15 15 15 14 13 14 14 15 15 15 15 15 15 14 14
19 19 19 19 19 19 19 19 20 20 19 19 19 19 18 18 18 17 17 17 17 17 17 17 17 17 17 16 16 16 16 16 15 15 15 16 16 16 16 16 17 17 17
21 21 21 21 21 21 21 21 21 21 20 20 20 20 20 20 19 19 18 18 18 18 19 18 18 18 18 17 17 17 17 17 17 16 16 17 17 17 17 17 18 18 18
23 22 22 22 22 22 22 22 22 22 22 22 22 21 21 21 21 20 20 20 20 19 19 20 19 19 19 19 19 19 18 18 18 17 17 17 17 18 18 18 18 18 19
25 24 24 24 24 24 25 24 24 24 24 24 24 23 23 23 23 22 21 21 21 21 21 21 21 20 20 20 20 20 21 21 20 20 20 19 19 19 19 19 19 20 20
26 26 25 25 26 26 26 26 26 26 26 26 26 26 25 25 25 24 24 24 24 23 23 23 23 22 22 22 22 23 23 23 23 22 22 22 21 21 21 21 21 22 22
28 28 27 27 27 27 27 28 28 28 29 29 29 28 28 27 27 27 26 26 26 26 25 25 25 25 24 24 25 25 25 25 25 25 25 24 24 24 24 24 24 24 24
30 29 29 29 29 29 29 30 30 31 31 31 32 31 30 29 29 29 29 28 28 28 27 27 27 27 27 26 26 27 27 27 27 27 26 27 26 26 26 26 26 26 26
31 31 31 31 31 31 32 32 32 33 33 33 33 33 33 32 32 31 31 31 31 31 30 30 29 29 28 28 28 28 29 29 29 29 29 29 29 29 29 29 29 29 29
34 34 33 33 33 33 33 33 34 34 35 34 35 35 35 35 35 34 33 34 34 33 33 32 32 31 31 31 30 31 31 32 32 31 31 31 31 31 32 32 31 31 31
36 36 35 35 35 35 35 35 35 36 36 36 36 37 37 37 36 36 36 36 36 36 36 35 34 34 33 33 33 33 33 33 34 34 33 34 34 33 33 34 34 34 33
36 37 37 37 37 37 37 36 37 36 37 37 38 38 38 38 38 37 37 38 38 37 37 37 36 36 36 36 36 35 35 35 35 35 35 35 36 35 35 35 36 36 36
37 38 38 38 38 38 38 38 38 38 38 39 39 40 40 39 40 39 39 39 39 39 39 38 38 38 38 38 38 37 37 37 37 37 37 38 38 38 37 37 37 37 38
38 39 39 39 39 39 39 39 39 39 39 40 41 41 41 41 41 41 41 41 40 40 40 40 40 40 40 40 39 39 39 39 39 39 39 40 40 40 40 40 39 39 39
38 39 39 40 40 40 40 40 40 40 40 41 42 42 42 42 42 42 42 42 42 41 41 41 41 41 41 41 41 41 41 40 41 41 41 41 41 42 42 42 41 42 42
39 39 40 40 41 41 41 41 41 41 41 41 41 42 42 43 43 43 43 44 43 43 42 42 42 42 42 43 43 43 43 42 41 41 41 42 43 43 44 44 43 43 43
39 39 40 41 41 42 42 43 42 42 42 42 42 42 43 44 44 44 44 45 45 44 44 44 44 43 43 44 44 44 44 44 44 44 43 44 44 45 45 46 47 46 46
38 39 40 41 42 42 42 43 43 43 42 42 43 43 44 44 45 45 45 46 46 46 45 46 46 46 45 46 46 46 46 46 47 46 46 46 46 47 47 47 48 48 48
39 40 41 41 42 42 42 43 44 44 43 43 43 43 44 44 44 45 45 46 46 46 46 47 47 47 47 47 46 47 47 48 48 48 48 49 48 48 49 49 50 50 51
40 40 41 41 42 42 43 44 44 44 44 43 43 43 43 44 44 44 45 45 46 46 47 47 48 48 47 47 47 48 49 49 49 49 50 50 50 50 51 51 51 52 52

GEFSSE_500_meanwind_300.txt.gz
Wind_Speed
12 12 13 13 13 13 13 12 13 13 13 14 13 13 13 13 13 13 12 12 12 12 12 11 10 11 11 11 10 10 9 9 8 8 7 7 7 6 6 6 6 5 5
13 14 14 14 14 14 14 13 14 13 13 14 14 14 14 13 13 14 14 13 13 13 13 13 12 12 12 12 11 11 10 10 9 9 9 8 8 7 7 7 7 7 7
14 14 15 15 15 15 14 14 14 14 14 14 15 15 15 14 14 14 14 14 14 14 14 14 14 14 13 12 12 12 11 11 10 10 10 10 10 9 9 9 9 8 8
16 16 15 16 16 16 16 15 15 15 14 14 15 15 15 15 16 15 15 15 15 15 15 15 15 15 15 14 14 13 13 12 12 12 12 11 11 11 10 10 10 10 9
17 17 17 16 16 17 17 17 17 16 16 16 16 16 16 16 15 16 16 16 16 16 16 16 16 16 15 15 15 14 14 13 13 13 13 12 12 12 11 11 11 11 11
19 18 18 17 17 17 18 18 18 18 18 18 17 17 16 16 16 16 16 16 16 16 16 16 17 17 16 16 15 15 15 14 14 14 14 13 13 13 13 12 12 12 12
20 20 20 19 19 19 19 19 19 19 19 19 19 18 17 17 16 16 17 18 17 17 17 17 17 17 17 17 17 16 16 15 15 14 14 14 13 13 13 13 13 13 13
22 21 21 21 20 20 21 21 21 21 21 21 20 20 19 19 18 18 18 18 18 18 18 18 18 17 18 18 18 17 17 17 16 16 15 15 15 14 15 15 15 14 13
24 23 23 23 22 22 22 22 22 22 22 22 22 21 21 20 20 19 19 19 19 19 19 19 18 19 18 19 19 18 18 18 17 17 17 17 16 16 16 16 17 16 15
26 25 25 24 24 24 24 24 23 23 23 23 23 23 23 22 22 22 21 21 21 21 21 20 20 20 20 20 20 20 20 19 19 19 18 18 18 18 18 18 17 17 17
27 27 27 26 26 26 26 25 25 25 24 24 25 25 25 25 24 24 24 23 23 23 23 22 22 21 21 22 22 22 21 21 22 21 21 20 20 20 19 19 19 19 18
29 29 28 28 28 27 27 27 26 26 26 26 26 26 27 27 26 26 25 25 25 25 25 25 24 23 23 23 24 24 23 23 23 23 23 23 22 22 21 21 21 21 21
30 30 30 29 28 28 28 28 28 28 28 28 28 28 28 28 28 28 27 26 26 27 27 27 27 26 25 25 25 24 24 25 24 25 25 24 24 24 24 24 24 23 23
31 31 31 31 31 30 30 30 30 30 30 30 30 29 29 30 29 30 30 28 28 28 29 29 29 29 29 28 27 26 25 26 27 27 26 27 27 26 26 26 26 25 25
33 33 33 33 33 33 32 32 32 32 32 32 32 32 31 31 31 32 32 31 31 31 32 32 31 31 31 31 31 29 28 28 28 29 28 28 28 28 28 28 28 28 27
34 34 34 34 34 34 34 34 33 34 34 34 34 34 34 34 34 34 34 34 33 33 33 33 33 33 33 33 34 32 31 30 30 30 30 30 30 30 30 30 30 30 29
35 35 35 35 35 35 36 36 35 35 36 36 36 36 36 36 36 35 35 35 35 35 35 35 35 35 35 35 35 34 34 33 32 32 32 32 32 32 32 32 32 32 31
37 37 36 36 36 37 37 37 38 38 38 38 38 39 39 38 38 37 37 36 36 36 36 37 37 37 37 37 37 36 36 35 35 35 34 34 34 34 34 34 34 34 34
38 38 37 37 37 38 38 38 39 39 40 40 40 40 40 40 39 39 38 38 38 38 38 38 39 39 39 39 39 39 39 38 38 37 36 36 36 36 36 36 36 36 36
39 39 39 38 38 39 39 39 40 41 41 42 42 41 41 41 40 40 40 39 39 39 40 40 40 40 41 41 40 40 41 40 39 39 39 39 38 38 38 38 38 38 37
40 40 40 40 39 39 40 40 41 41 42 42 43 42 42 42 41 41 41 41 40 40 41 41 41 41 42 42 42 42 42 42 42 41 41 40 40 40 40 39 39 39 39
40 40 40 41 41 41 41 41 41 42 42 42 43 43 43 42 42 42 42 42 42 41 42 42 42 43 43 43 44 44 44 43 43 43 43 42 42 41 42 42 41 41 41
40 40 40 41 41 42 42 42 42 43 43 43 42 43 43 43 42 42 43 42 42 42 42 43 43 43 44 44 45 45 45 45 45 45 45 45 45 44 43 43 43 43 43
40 40 40 41 42 42 42 42 42 43 43 43 43 43 44 44 43 43 43 44 44 43 43 43 44 45 45 45 45 46 46 47 47 47 47 47 46 46 45 45 45 46 46
40 40 41 41 42 42 43 43 43 43 43 43 44 43 44 44 43 43 44 44 44 44 44 44 45 45 45 46 46 46 47 48 48 48 48 47 48 48 48 47 48 48 48
41 41 41 42 42 43 43 43 43 43 43 43 43 43 44 44 44 44 44 44 45 45 45 45 45 46 46 46 47 47 47 48 49 49 49 49 49 49 49 49 50 50 50

GEFSSE_500_meanwind_306.txt.gz
Wind_Speed
11 11 11 11 10 11 11 11 11 11 12 12 13 13 13 13 14 14 14 13 13 13 13 13 12 12 11 10 10 10 10 10 10 9 9 8 8 8 8 7 7 7 7
13 13 13 12 12 12 12 12 11 12 12 13 13 13 14 14 14 15 15 15 14 14 14 13 13 12 12 11 11 11 11 11 11 10 10 10 10 9 9 9 8 8 8
14 14 15 14 14 13 13 13 13 13 13 14 14 14 14 15 15 15 15 15 15 14 15 15 14 14 13 12 12 12 12 12 12 12 11 11 11 11 11 10 10 10 9
15 16 16 16 15 15 15 15 14 14 15 15 15 15 15 15 15 15 15 15 15 15 15 15 16 15 15 14 14 14 13 13 13 13 12 12 11 11 11 11 11 11 11
17 17 17 16 16 16 16 16 16 16 16 16 16 16 16 16 16 16 16 16 16 16 16 16 16 16 16 16 15 15 15 14 14 15 14 14 13 12 12 12 12 12 12
19 18 18 18 17 17 17 17 17 17 17 17 17 17 17 17 16 16 16 17 16 16 16 17 17 18 17 17 16 16 16 16 16 15 15 15 15 14 14 14 13 13 14
21 20 20 19 19 19 19 18 18 18 18 18 19 19 18 18 18 17 17 17 17 17 17 17 18 18 18 18 17 17 17 16 16 16 16 16 16 16 16 15 14 14 14
23 23 22 21 21 21 21 21 20 20 20 20 20 20 20 19 19 19 18 18 18 18 19 18 18 19 19 19 19 18 18 17 17 18 18 17 17 17 16 16 15 15 15
25 25 24 23 23 23 23 22 22 22 22 22 22 22 22 21 21 20 20 20 19 19 20 20 20 20 20 20 20 20 19 18 18 18 19 19 18 18 18 17 17 16 16
26 26 26 25 25 25 25 24 24 24 24 24 24 24 24 23 23 22 22 22 22 21 21 21 21 21 21 21 21 21 21 21 20 20 20 20 19 19 19 19 19 18 18
28 28 27 27 27 27 27 26 26 26 25 25 25 25 25 25 25 24 24 24 24 24 23 23 23 23 23 22 22 22 22 22 21 22 22 21 21 21 21 21 21 20 21
29 29 29 29 29 28 28 28 28 27 27 27 27 27 26 26 26 26 26 26 26 25 25 24 25 24 24 24 24 24 23 23 23 23 24 24 23 23 23 23 23 23 22
30 30 30 30 30 30 30 29 29 29 29 28 28 28 28 28 28 28 28 27 27 27 27 26 26 26 26 26 26 26 25 25 25 25 25 26 26 25 25 25 25 25 24
32 32 32 31 31 31 31 31 30 30 30 30 30 30 30 30 30 30 29 29 29 29 29 29 28 28 28 28 28 28 28 28 27 27 26 27 27 27 26 27 27 27 26
33 33 33 33 33 33 33 33 32 32 32 32 32 32 32 32 32 32 31 31 31 31 31 31 31 30 30 31 30 31 31 30 30 29 28 28 28 28 29 28 28 28 28
35 35 35 35 35 34 34 35 35 35 35 35 34 34 34 34 34 34 33 33 33 34 33 33 33 33 33 33 33 33 33 33 33 32 32 31 30 30 30 30 30 30 30
36 36 36 36 36 36 36 36 37 37 36 37 36 36 36 35 35 35 35 35 35 36 36 35 35 35 35 36 36 36 36 36 36 35 35 34 34 33 32 32 32 32 32
37 37 37 38 37 37 37 37 37 38 38 38 38 38 38 38 37 37 37 36 37 37 37 37 37 37 37 37 38 38 38 38 38 37 37 37 36 35 34 34 34 33 34
37 37 37 37 37 37 37 38 38 39 39 39 39 39 39 39 39 39 38 38 38 38 38 38 38 38 38 39 39 40 39 40 40 39 39 38 38 37 37 37 36 35 35
38 38 38 38 38 38 38 38 39 39 40 40 39 39 39 40 40 40 40 39 39 39 39 39 39 39 39 39 40 40 40 40 40 40 40 39 39 39 39 39 39 38 37
39 39 39 39 39 39 39 39 39 40 40 40 40 40 40 41 41 41 41 40 40 40 40 40 40 40 40 41 41 41 41 41 41 41 41 41 40 41 41 41 40 40 39
39 39 40 40 40 40 40 40 40 40 40 41 41 41 41 41 42 42 42 41 41 41 41 40 40 41 41 41 41 42 42 42 42 42 42 42 42 42 42 42 42 42 41
40 40 41 41 41 41 41 41 41 41 41 41 41 41 41 42 42 42 42 41 41 41 41 40 41 41 41 41 41 42 42 43 44 44 44 44 44 44 44 44 44 44 43
40 41 41 42 42 42 42 42 42 42 42 42 42 42 42 42 42 42 42 42 42 42 42 42 42 42 42 42 42 42 43 44 44 45 44 45 46 45 45 46 46 45 45
40 41 42 42 42 43 43 43 42 42 43 43 43 43 42 42 42 43 43 44 44 44 44 43 43 44 44 43 43 43 44 45 45 45 45 45 46 46 47 47 47 47 47
40 41 42 42 42 43 43 43 43 43 43 43 43 43 43 43 43 44 44 45 44 44 44 44 44 45 45 44 44 44 45 46 46 47 47 47 47 47 47 48 48 48 48

GEFSSE_500_meanwind_312.txt.gz
Wind_Speed
13 13 12 12 11 11 10 10 10 9 9 9 9 9 9 9 9 9 9 9 10 10 10 10 10 10 10 9 9 9 9 8 8 7 7 7 7 7 7 7 6 6 6
14 13 13 13 12 12 11 11 10 10 10 10 10 10 10 10 10 10 10 10 10 10 11 11 11 11 11 10 10 9 9 9 8 8 8 8 7 7 7 8 8 7 7
15 15 14 13 13 13 12 12 11 11 11 10 11 11 11 11 11 11 11 11 11 11 12 12 12 12 12 12 12 11 10 10 9 9 9 9 9 9 9 9 9 9 9
17 16 16 15 15 14 14 13 13 12 12 12 12 12 12 12 12 12 13 12 12 12 12 12 13 13 13 13 13 13 12 12 11 10 10 10 10 9 10 10 10 9 10
18 17 17 17 16 16 16 15 15 14 14 14 14 14 14 14 14 14 13 13 13 13 13 13 13 13 14 14 14 13 13 13 13 12 11 11 11 11 11 11 11 11 11
19 19 18 18 18 18 17 17 17 16 16 16 16 16 16 15 15 15 15 14 14 14 14 14 14 14 14 14 15 14 14 14 14 13 13 12 12 11 11 12 12 12 12
21 21 20 20 20 20 20 19 19 18 18 18 18 18 17 17 17 17 16 16 16 15 15 15 16 15 15 15 15 16 16 15 15 15 14 14 14 14 13 13 13 13 13
23 22 22 22 22 21 21 21 20 20 20 20 20 20 19 19 19 18 18 18 18 17 17 16 17 17 17 17 17 17 17 17 17 16 16 16 15 15 15 15 14 15 14
24 24 24 24 24 23 23 23 23 22 21 21 21 21 21 21 21 20 20 20 20 19 19 18 18 18 18 18 18 18 19 19 19 18 18 18 17 16 16 16 16 16 16
26 26 26 26 26 25 25 25 25 24 23 23 23 23 23 22 22 22 22 22 22 22 21 21 20 20 20 20 19 20 20 20 20 20 20 19 19 18 17 18 18 17 17
28 28 28 28 27 27 26 26 26 26 25 25 25 25 24 24 24 24 24 24 24 24 24 23 22 22 22 21 21 20 20 20 21 21 21 21 21 21 20 19 19 19 19
29 29 29 30 29 29 28 28 28 28 27 27 27 26 26 26 26 26 25 26 25 26 25 25 25 25 24 24 23 23 22 21 21 22 22 22 22 23 22 21 21 21 21
31 31 31 32 31 31 31 30 29 29 29 28 28 28 27 27 27 27 27 27 27 27 27 27 27 27 26 26 26 26 25 25 24 24 24 24 23 24 24 23 23 22 22
32 32 33 33 33 33 32 32 32 31 30 30 30 30 29 29 29 29 29 29 28 29 29 29 29 29 28 28 28 28 28 27 27 26 26 26 25 26 26 25 25 25 24
33 33 33 34 34 34 34 34 33 33 32 32 32 32 31 31 31 31 31 31 30 30 31 31 31 30 30 30 29 29 29 29 29 28 28 28 27 27 28 28 28 28 27
35 35 35 35 35 35 35 35 35 35 35 34 34 34 33 33 33 33 33 33 32 32 32 33 33 32 32 32 32 31 31 31 31 31 31 30 30 30 30 30 30 30 30
36 36 37 37 37 37 37 37 37 37 37 37 36 36 36 36 36 35 35 35 35 35 34 34 35 34 34 34 34 33 33 33 33 33 33 33 33 33 33 33 33 32 32
38 38 38 38 38 38 38 39 39 39 39 39 39 38 38 38 38 38 37 37 37 37 37 37 36 36 36 35 35 35 35 35 35 35 35 35 36 36 35 35 35 34 34
40 39 39 39 40 40 40 40 40 40 40 40 40 40 39 39 40 40 40 39 39 38 38 38 38 38 37 37 37 37 36 36 36 36 36 37 37 37 37 37 37 36 35
41 41 40 40 40 41 41 41 41 41 41 40 40 40 39 40 40 40 40 41 41 40 40 39 39 39 39 39 38 38 37 38 38 38 38 38 39 39 39 39 39 39 38
41 41 41 42 41 41 42 41 41 41 41 41 41 40 40 40 40 40 40 41 41 41 41 40 40 40 40 40 39 39 39 39 39 40 40 40 40 40 40 40 40 40 40
42 42 42 42 43 43 42 42 41 41 41 41 40 41 41 40 41 40 41 41 41 41 41 41 41 41 41 41 41 41 41 40 41 41 41 41 41 41 41 41 42 42 42
44 43 43 43 43 43 43 42 42 42 41 41 41 41 41 41 42 41 42 42 42 42 42 42 42 42 42 42 42 42 42 42 42 42 42 42 42 42 42 42 42 43 43
44 44 44 44 43 43 42 42 43 42 42 42 41 42 42 42 42 42 42 42 42 42 42 42 42 42 43 43 43 43 43 43 43 42 43 43 43 43 43 43 43 44 44
44 44 44 44 44 44 43 43 43 43 43 43 43 43 43 43 43 43 43 43 42 42 42 43 43 43 43 43 43 44 44 44 44 44 43 43 44 44 44 45 45 45 45
44 44 45 45 44 45 44 44 44 44 43 44 44 44 44 44 43 44 44 44 43 43 44 44 44 44 44 45 44 45 45 45 45 45 44 44 44 45 45 45 46 46 46

GEFSSE_500_meanwind_318.txt.gz
Wind_Speed
15 15 14 14 14 13 12 11 11 11 11 10 10 10 10 9 9 9 8 8 8 8 8 8 8 7 7 7 7 7 7 7 7 7 7 7 7 6 7 6 6 7 7
16 16 16 15 15 14 13 13 12 12 12 11 11 10 10 10 10 9 9 9 9 8 8 8 8 8 8 7 7 8 7 7 8 8 7 7 7 7 7 8 8 8 7
17 17 17 16 16 15 15 14 14 13 13 12 12 12 11 11 11 11 11 11 10 10 9 10 9 9 9 9 8 9 9 8 8 9 9 8 8 8 8 8 8 9 9
18 18 18 18 17 16 16 16 15 15 14 14 13 13 13 13 12 12 12 12 11 11 11 11 11 10 11 11 11 10 10 10 10 10 10 10 9 9 9 9 9 10 10
19 19 19 18 18 17 17 17 16 15 15 15 15 15 15 15 14 13 13 13 13 12 12 12 12 12 11 12 12 12 12 12 11 11 11 11 11 10 10 10 10 10 11
20 20 20 19 19 18 18 17 17 16 16 16 16 16 16 16 16 16 15 15 14 14 14 13 13 13 13 12 12 12 13 13 12 12 13 13 12 12 11 11 11 11 12
21 21 21 21 21 20 20 19 19 18 18 17 17 17 17 18 18 17 17 16 16 16 15 15 15 15 14 14 13 13 14 14 13 13 14 14 14 13 13 13 13 13 13
22 22 22 22 22 22 21 21 21 20 20 20 20 20 20 19 19 19 18 18 18 18 17 17 17 17 16 15 15 15 15 15 15 15 15 15 15 15 15 15 14 14 14
24 24 23 24 23 23 23 23 23 22 22 22 21 21 21 21 21 21 21 20 20 20 20 19 19 19 18 18 17 17 16 16 17 17 17 17 17 17 17 16 16 16 15
25 25 25 25 25 25 25 25 25 24 24 23 23 23 23 23 22 22 23 22 22 22 22 21 21 21 21 20 19 18 18 18 18 18 18 19 19 18 18 18 18 18 17
27 27 26 26 27 27 27 27 27 27 26 25 25 25 25 25 24 25 24 24 24 24 24 23 23 23 23 22 21 20 20 19 20 20 20 20 20 21 20 20 20 19 19
29 29 28 28 28 28 29 29 29 28 28 27 27 26 26 26 26 26 26 26 26 26 26 25 25 25 24 24 23 23 22 22 21 22 22 21 22 22 22 22 22 22 21
31 30 31 31 30 30 30 30 30 30 30 30 29 29 28 28 28 28 28 27 27 27 27 27 26 26 26 26 25 25 24 24 24 23 23 23 24 24 24 24 24 24 23
33 32 33 33 33 32 32 32 32 32 32 32 31 31 31 30 30 29 29 29 29 29 28 28 28 28 27 27 27 26 26 26 26 25 25 25 25 26 26 26 26 26 25
34 34 34 34 34 34 34 33 34 33 33 33 33 32 32 32 32 31 31 31 31 31 31 30 30 30 29 29 29 28 28 28 28 27 27 28 28 27 27 28 28 27 27
35 35 35 35 35 35 35 35 35 35 35 34 34 34 34 34 34 34 34 33 33 33 33 32 32 32 31 31 31 31 31 30 30 30 30 30 30 29 29 29 30 30 30
37 37 37 37 36 36 36 37 37 37 37 36 37 37 37 37 36 36 36 36 35 35 35 35 34 34 33 33 33 32 33 33 32 33 32 32 32 32 32 31 31 31 32
38 38 38 38 37 37 37 38 38 38 38 38 38 38 39 39 39 39 38 38 37 37 37 37 37 36 36 35 35 35 35 35 34 34 34 34 34 34 34 33 33 33 33
39 39 39 39 39 39 39 39 39 39 39 39 39 39 40 40 40 40 40 40 39 39 38 38 38 38 38 38 37 37 37 37 36 36 36 36 36 36 36 36 35 35 35
41 41 41 40 40 40 40 40 40 40 40 40 40 40 39 40 40 40 40 40 40 40 40 40 40 40 40 39 39 39 39 39 38 38 37 37 37 37 37 37 37 37 37
44 43 42 42 41 42 41 41 41 41 41 40 40 39 39 39 40 40 40 40 40 40 41 41 41 41 41 41 41 41 40 40 40 40 40 39 39 39 39 38 39 39 39
45 45 44 44 44 44 43 43 43 42 42 41 41 41 40 40 40 39 40 40 40 40 41 41 41 41 42 42 42 42 42 42 42 42 41 41 41 41 41 40 40 41 41
45 45 46 46 46 46 46 45 44 44 43 43 43 43 42 42 41 41 41 40 40 41 41 40 41 42 42 42 43 43 43 44 43 43 43 43 43 42 42 42 42 42 42
46 46 46 46 46 47 46 45 45 45 44 44 43 43 44 43 43 41 42 41 41 41 41 41 41 42 43 43 43 44 44 44 44 44 44 44 43 43 43 43 43 43 43
46 46 46 47 47 47 47 46 45 45 45 45 45 45 45 44 44 44 43 43 42 42 42 42 42 42 43 43 44 44 44 44 45 44 44 44 44 44 44 44 44 43 43
46 46 47 47 47 48 48 48 47 47 47 47 47 46 46 46 45 45 45 44 44 43 43 43 44 44 44 44 45 45 45 45 45 45 45 45 45 45 45 46 45 45 45

GEFSSE_500_meanwind_324.txt.gz
Wind_Speed
16 16 16 16 16 15 15 14 13 13 13 13 13 12 12 11 11 10 9 9 8 8 7 7 7 7 7 6 6 6 6 6 6 5 5 5 5 5 5 5 5 5 5
17 18 18 18 17 16 16 15 14 14 14 14 13 13 13 12 12 12 11 10 10 9 8 8 7 7 7 7 6 7 7 7 7 6 6 6 6 6 6 6 6 7 7
18 18 18 18 18 18 17 16 16 15 15 15 14 14 14 14 13 13 13 12 11 10 9 9 8 8 8 8 7 7 7 8 8 7 7 7 7 7 7 7 7 8 8
18 19 19 19 19 19 19 18 17 17 16 16 15 15 15 15 14 14 13 13 13 12 11 10 10 10 9 9 9 8 9 9 9 9 9 8 8 8 8 8 8 8 9
19 20 20 20 20 20 19 19 18 18 17 17 17 16 16 16 15 15 14 14 14 14 13 12 11 11 11 11 10 10 10 10 10 10 10 10 10 9 10 9 9 9 9
21 21 21 21 21 21 20 20 20 19 19 19 18 18 17 17 17 17 17 16 16 15 15 14 13 13 13 12 12 12 12 12 12 12 12 12 11 11 11 11 11 11 11
22 22 22 22 22 22 21 21 20 20 20 20 20 20 19 19 19 19 18 18 17 17 17 16 16 15 15 14 14 13 13 13 13 13 13 13 13 13 12 12 12 12 12
23 23 23 23 23 23 22 22 22 22 22 22 21 21 21 21 20 20 19 19 19 18 18 18 17 17 17 16 16 15 15 15 14 14 14 14 14 13 13 13 13 13 14
25 25 24 24 24 23 24 23 23 23 23 23 22 22 22 22 21 21 21 20 20 20 19 19 19 19 19 18 17 17 17 16 16 16 15 15 15 15 14 15 14 14 15
27 26 25 25 25 25 25 25 24 24 24 24 24 24 24 23 23 23 23 22 22 22 21 21 21 21 21 20 20 19 19 18 17 17 17 16 16 16 16 16 16 16 16
27 27 27 27 27 27 26 26 26 26 26 26 26 26 25 25 25 25 24 24 24 24 23 23 23 23 22 22 22 21 21 20 19 19 18 18 18 18 18 18 18 18 18
29 28 28 28 28 28 28 28 28 28 28 28 28 28 28 27 27 26 25 25 25 25 25 25 25 25 24 24 23 23 23 22 21 21 20 20 20 20 20 20 20 20 20
30 30 30 30 30 30 30 30 30 30 30 30 30 30 29 29 28 28 27 27 26 26 27 27 27 26 26 25 25 25 24 24 24 23 23 22 22 22 22 22 22 22 21
32 32 32 31 31 31 31 32 32 31 31 31 31 31 31 30 30 29 29 28 28 28 28 28 28 28 28 27 27 27 26 26 25 25 25 25 24 24 23 23 23 23 23
34 34 33 33 33 32 33 33 33 33 33 33 33 33 32 32 31 31 30 30 29 29 29 29 29 29 29 29 28 28 28 28 27 27 27 26 26 26 26 26 25 25 25
35 35 35 35 35 34 34 35 35 35 35 34 34 34 34 34 33 33 32 32 31 31 30 30 30 30 30 30 30 30 30 30 30 29 28 28 28 28 28 28 27 27 27
37 37 37 37 36 36 36 36 36 37 36 35 35 35 36 35 35 35 34 33 33 33 33 32 32 32 32 32 32 32 32 32 32 31 31 31 31 30 30 30 30 29 29
39 39 39 38 38 38 38 38 38 37 37 37 37 36 37 36 36 36 36 36 35 35 35 35 35 34 34 34 34 34 34 34 34 33 33 33 33 33 33 33 33 32 32
41 41 40 40 40 39 39 39 39 38 38 38 38 38 38 38 38 37 37 38 38 37 37 37 37 37 37 36 36 36 36 35 35 35 35 35 35 35 35 35 35 35 34
43 42 42 42 41 41 40 40 40 40 40 40 39 39 39 40 39 38 38 38 39 39 39 39 39 39 39 39 38 38 38 37 37 36 36 36 37 37 37 37 36 36 35
43 43 43 43 42 42 42 42 42 42 42 42 42 41 41 41 41 40 40 39 40 40 40 40 40 40 40 40 40 40 39 39 38 38 38 38 38 39 39 38 38 38 38
44 44 44 44 44 43 43 43 43 42 43 43 43 43 42 41 41 41 41 40 40 40 40 40 40 40 40 41 41 41 40 40 40 39 39 39 39 39 40 40 40 39 39
45 45 45 45 44 45 44 44 44 44 44 44 43 43 43 43 43 42 43 42 41 41 41 41 40 41 41 41 42 42 41 41 41 40 40 41 40 41 41 41 41 41 40
45 46 46 46 46 46 46 46 46 46 46 46 45 45 45 45 44 44 44 44 43 43 42 42 41 42 41 41 41 42 42 42 42 41 41 42 42 42 42 42 42 41 41
45 46 46 47 47 48 47 47 47 47 47 47 47 46 46 46 46 46 45 45 44 44 43 43 43 42 42 41 41 42 42 43 43 43 43 43 44 44 44 44 43 43 43
45 46 46 47 47 48 48 48 47 48 48 48 48 48 48 47 46 46 46 46 45 45 44 44 44 43 43 42 42 42 42 43 44 44 45 45 45 45 45 45 45 45 45

GEFSSE_500_meanwind_330.txt.gz
Wind_Speed
15 14 14 14 14 13 13 13 12 12 12 12 12 12 12 11 11 10 10 9 9 8 8 7 7 6 6 6 6 6 6 6 6 6 6 6 5 5 5 5 5 5 5
16 16 16 16 15 15 15 14 14 13 13 14 14 13 13 13 12 12 11 11 10 10 9 8 8 7 7 7 7 7 7 7 7 6 7 7 7 6 6 5 5 5 5
16 17 17 17 17 17 16 15 15 15 15 15 15 14 14 14 14 14 13 13 12 11 10 10 10 9 8 8 8 8 8 8 8 8 8 8 8 8 7 7 6 6 6
18 18 18 18 18 18 18 17 17 16 16 15 16 16 15 15 15 15 15 14 14 13 12 11 11 11 10 10 9 9 9 9 9 9 9 9 9 9 9 8 8 7 7
19 19 19 19 19 19 19 18 18 17 18 17 17 17 17 16 16 16 16 15 15 15 15 14 13 13 12 11 11 11 11 11 10 11 10 10 10 10 10 10 9 9 9
20 20 20 20 21 21 20 20 20 19 19 19 19 19 19 18 17 17 16 17 16 16 17 16 15 15 14 13 13 13 13 12 12 12 12 12 12 12 11 11 11 11 10
22 22 22 21 21 22 22 21 21 21 21 21 20 20 20 20 19 19 19 18 18 18 18 17 17 16 16 15 15 14 14 14 14 14 14 13 13 13 13 13 13 12 12
24 24 23 23 23 23 22 22 22 22 22 22 21 21 21 21 21 21 20 20 20 20 20 19 19 18 18 17 17 16 15 15 14 14 15 15 15 15 14 14 14 14 13
25 25 25 24 24 24 23 23 23 23 23 23 23 23 23 23 23 23 22 22 22 21 21 21 20 20 19 19 18 18 17 16 16 16 15 16 16 16 16 16 15 15 14
27 26 26 25 25 25 25 25 25 25 25 24 24 24 25 24 24 24 24 23 23 23 22 22 22 21 20 20 20 20 19 19 18 17 17 17 17 17 17 17 17 16 16
28 27 27 27 27 27 27 27 27 26 26 26 26 26 26 26 25 25 25 24 24 23 23 23 23 22 22 22 21 21 21 20 20 19 19 19 18 18 18 18 18 17 17
29 29 28 28 29 29 29 29 28 28 28 28 27 27 27 27 26 26 26 26 25 25 24 24 24 24 24 24 24 23 22 22 22 21 21 21 20 20 20 20 19 19 19
30 30 30 29 30 30 30 30 30 30 30 29 29 28 28 27 27 27 27 27 27 27 26 26 26 26 25 25 25 25 24 24 24 23 23 22 22 22 21 21 21 21 21
32 32 32 31 31 31 31 31 31 31 31 30 30 30 29 29 29 29 28 28 28 28 28 27 27 27 27 27 27 27 26 26 25 25 25 24 24 24 23 23 23 23 23
33 33 33 33 33 32 32 32 32 32 32 32 32 31 31 31 31 30 30 30 30 29 29 29 29 29 29 28 28 28 28 28 28 27 27 27 26 26 25 25 24 24 23
35 35 35 35 34 34 34 33 33 34 34 34 33 33 33 33 33 32 32 32 32 31 31 31 31 30 30 30 30 30 29 29 29 29 29 29 29 29 28 27 27 26 26
37 37 38 37 36 35 35 35 35 35 35 35 35 35 34 34 33 33 33 33 33 33 33 32 32 32 32 32 32 32 32 32 31 31 31 31 31 31 30 30 29 29 28
39 39 39 39 38 38 37 37 37 37 37 37 37 36 36 35 35 35 35 35 35 35 34 34 34 34 34 34 33 33 33 33 33 33 32 32 33 32 32 32 32 32 32
41 40 40 40 40 40 40 39 39 38 38 38 38 38 38 37 37 37 37 37 37 37 37 36 36 36 36 36 36 35 35 34 34 35 35 35 34 34 34 34 34 34 34
41 42 42 42 42 42 42 41 41 41 40 39 39 39 39 39 39 39 38 38 39 39 38 38 38 37 37 37 37 37 37 37 37 36 36 37 36 36 36 36 36 36 35
41 42 42 43 43 43 43 42 42 42 41 41 41 40 40 40 40 40 41 40 40 40 39 39 39 38 38 39 39 39 39 39 39 38 38 38 38 38 38 38 37 37 37
40 41 43 43 43 43 43 44 43 43 43 42 43 42 42 42 42 42 42 41 41 41 40 40 40 40 40 41 41 41 41 40 40 40 40 40 40 40 39 39 39 39 40
41 41 43 44 44 44 44 44 44 44 44 43 43 44 43 43 44 44 43 43 43 42 42 42 42 42 42 42 43 42 42 42 42 42 42 42 41 41 41 41 41 41 41
42 43 44 44 45 45 45 45 46 45 44 44 45 45 44 44 45 45 45 45 44 44 44 44 44 44 44 44 44 44 44 44 43 43 43 43 43 43 43 43 43 42 42
43 44 45 45 46 47 46 47 47 47 46 44 45 46 46 46 45 45 45 45 46 46 46 46 45 45 45 45 44 44 44 44 44 44 44 44 44 44 44 44 44 44 44
42 43 45 46 46 47 47 47 48 48 48 47 46 46 46 47 48 48 47 47 47 47 46 46 46 46 45 45 45 44 44 44 43 44 45 46 45 45 46 46 46 46 45

GEFSSE_500_meanwind_336.txt.gz
Wind_Speed
15 15 15 14 13 13 12 11 11 11 11 10 10 9 8 8 7 7 6 6 6 6 5 5 4 4 4 4 3 3 3 3 3 3 4 4 3 3 3 3 4 3 3
16 16 16 15 14 14 14 13 12 12 12 12 11 10 10 9 8 8 8 8 8 7 7 6 6 5 5 5 5 5 4 4 4 4 5 5 5 4 4 4 5 5 5
17 17 17 17 16 15 14 14 14 14 13 13 13 12 11 11 10 10 9 9 9 9 8 8 7 7 6 6 6 6 6 5 6 6 6 6 6 6 6 6 6 6 6
18 18 18 18 17 17 16 15 15 15 14 14 14 13 13 12 11 11 11 11 11 11 10 9 9 9 8 8 8 8 7 7 7 7 7 7 7 7 7 7 7 7 6
20 19 18 19 18 18 17 17 17 16 16 15 15 15 15 14 13 12 12 12 12 12 12 11 11 10 10 9 9 9 8 8 8 8 8 8 8 8 9 9 8 8 8
21 21 21 20 20 20 19 19 18 18 17 17 17 16 16 16 15 15 14 14 14 14 14 14 13 12 12 12 11 11 10 10 10 9 9 9 9 9 10 10 10 10 10
23 23 22 22 22 21 21 20 20 19 19 19 18 18 18 17 17 17 17 16 16 17 16 16 16 15 15 15 14 13 12 12 12 11 11 10 10 10 10 11 11 11 11
24 24 24 24 23 23 22 21 21 21 21 21 21 20 20 20 19 19 19 19 18 18 18 18 17 17 17 16 16 15 14 14 13 13 13 12 12 11 12 12 12 12 12
26 26 25 25 25 24 24 23 23 23 22 22 22 21 21 22 21 21 21 22 21 20 20 19 19 19 18 18 18 17 17 16 15 15 14 14 13 13 13 13 13 13 13
28 27 26 26 27 26 26 25 25 24 24 23 23 22 23 23 23 23 23 22 22 22 22 21 21 20 20 20 19 19 18 18 17 16 16 15 15 15 15 15 15 14 14
29 28 28 27 28 28 28 27 26 25 25 25 25 24 24 24 24 24 24 24 23 23 23 23 22 22 22 21 21 21 20 20 19 18 18 18 17 17 16 16 16 16 16
29 29 29 29 29 29 28 28 28 27 27 27 26 26 26 26 25 25 25 25 25 24 24 24 24 23 23 23 23 22 22 21 21 20 20 20 20 19 19 18 18 18 18
30 30 30 30 30 30 30 29 29 29 29 29 28 27 27 27 27 27 27 27 27 26 25 25 24 24 24 24 24 24 24 23 23 22 22 22 22 21 21 20 20 20 20
29 30 31 31 31 31 30 31 31 31 31 30 30 29 29 29 29 28 28 28 28 28 27 27 26 25 25 25 25 25 25 25 25 24 24 24 23 23 22 22 22 22 22
30 31 32 32 32 32 32 32 32 32 32 31 31 31 30 30 30 30 29 30 29 29 28 28 27 27 27 27 26 26 26 26 27 27 26 26 25 25 24 24 24 24 24
32 33 33 34 33 33 34 33 33 33 33 33 33 32 32 31 31 31 31 31 31 30 30 29 29 28 28 28 29 28 28 28 28 29 28 28 27 27 26 26 26 25 26
33 34 34 35 35 35 34 35 34 34 34 34 34 34 33 33 33 32 32 32 32 32 32 31 31 30 30 30 30 30 30 30 30 30 30 30 30 29 29 28 28 28 28
35 35 35 35 36 36 36 36 35 35 35 35 35 35 35 34 34 34 34 34 34 34 34 33 33 33 32 32 32 32 32 32 32 32 32 32 31 31 30 30 30 30 30
36 36 37 37 37 37 38 37 37 37 37 37 37 37 36 36 36 36 36 36 36 35 35 34 34 34 34 34 34 34 34 34 34 34 34 34 33 33 33 33 32 32 32
36 37 38 38 38 38 39 39 39 39 38 38 38 37 37 38 38 37 37 37 37 37 37 37 36 36 36 36 36 36 36 36 36 36 36 36 36 36 36 36 35 35 35
36 36 37 38 39 39 39 40 41 40 40 39 40 40 39 39 39 39 39 39 39 39 39 39 38 38 38 39 39 38 38 38 38 38 38 38 37 37 37 38 37 37 37
36 37 37 38 39 40 40 41 41 41 40 41 42 42 42 41 41 41 41 40 41 41 40 40 40 40 40 40 40 40 40 39 39 39 39 38 39 39 39 39 39 39 39
37 37 38 38 39 40 41 41 42 42 41 42 43 44 43 43 43 43 43 43 43 42 42 42 42 42 42 41 41 41 41 41 40 40 40 40 41 41 40 40 41 41 41
38 38 38 39 40 40 41 42 43 45 44 43 44 44 44 44 45 45 45 44 44 44 44 44 44 44 44 44 43 42 43 43 42 42 42 42 42 42 42 42 43 43 42
39 40 40 40 41 41 42 42 43 45 46 45 45 45 45 46 46 46 46 45 46 46 46 46 46 46 46 45 45 45 45 45 45 45 44 44 44 44 43 43 44 45 45
40 41 42 42 42 43 43 44 44 46 47 47 46 46 47 46 47 47 47 46 47 47 47 48 47 47 48 47 47 46 46 46 46 46 46 46 45 45 45 45 45 46 46